Theta_e
327 327 324 323 322 320 320 320 319 319 319 319 318 318 317 316 315 312 312 313 314 315 314 314 313 309 307 310 307 310 308 305 306 304 304 303 302 302 303 302 302 302 302
327 325 324 324 323 321 319 317 319 317 317 318 318 317 316 316 314 311 312 311 312 311 312 313 310 308 306 308 309 309 308 307 307 305 302 301 302 300 301 300 301 301 301
327 324 325 324 323 321 317 318 317 318 315 316 316 316 316 316 316 313 310 307 309 311 311 305 306 307 306 306 306 307 306 304 305 303 301 302 300 299 297 299 299 300 300
329 324 325 324 323 322 318 316 317 316 316 315 314 312 313 314 314 314 312 311 310 306 309 304 306 305 305 308 306 304 304 302 303 302 301 300 298 296 295 297 300 300 300
327 324 325 325 323 322 320 317 316 315 314 311 310 310 309 310 311 312 311 311 311 312 308 300 301 302 303 307 306 305 305 304 302 301 300 297 296 296 295 295 295 297 295
328 325 326 325 323 323 321 317 316 314 312 311 311 310 309 308 308 308 305 307 310 311 308 304 307 303 299 304 303 304 305 305 303 300 299 296 295 295 294 294 294 294 294
328 326 326 325 324 323 322 319 316 313 312 311 310 310 310 310 309 308 306 306 302 307 309 308 310 308 302 300 299 304 306 303 302 298 297 295 295 294 294 294 294 293 293
328 326 326 325 325 324 323 321 317 314 313 311 311 311 311 310 310 309 308 307 305 304 301 303 308 309 308 306 302 298 298 298 300 296 296 295 295 295 294 294 293 293 293
324 326 327 325 326 325 324 323 320 318 314 312 312 312 312 313 312 309 309 309 308 304 304 301 302 306 308 306 304 299 297 296 296 296 296 295 295 295 294 294 293 293 293
322 325 327 327 326 326 324 324 322 320 317 316 313 315 315 317 313 311 311 310 310 306 306 303 300 299 301 301 299 299 298 297 296 296 295 295 295 294 294 293 293 293 293
322 322 326 327 326 325 326 324 324 322 319 319 317 314 314 316 314 315 313 312 311 309 308 306 302 301 300 299 300 300 298 297 297 296 295 295 295 294 294 293 293 293 293
324 320 325 326 325 326 326 327 326 325 323 320 320 319 316 315 313 313 315 314 314 312 310 308 305 302 301 301 300 300 299 298 297 297 296 295 295 295 294 293 293 293 293
325 324 322 325 325 327 328 327 328 326 325 323 322 320 320 318 313 315 314 317 315 313 312 310 309 305 303 303 302 302 300 298 298 297 297 296 295 295 294 294 293 293 292
326 326 326 326 323 325 328 328 328 329 327 325 325 323 321 319 317 315 317 317 315 313 313 312 310 308 305 304 303 303 301 299 298 298 297 297 296 295 295 294 294 293 292
328 329 327 325 326 324 329 329 329 329 328 328 326 326 323 320 319 314 317 317 317 314 314 313 313 311 307 305 304 303 303 302 300 299 298 297 297 296 295 295 294 293 293
328 329 328 326 326 324 324 329 329 328 328 328 329 327 326 323 319 317 315 317 317 316 316 316 316 315 314 311 306 305 302 302 301 300 299 298 297 297 296 295 295 294 294
325 326 327 328 328 327 325 325 328 330 329 330 329 329 327 326 323 320 315 316 317 317 316 316 317 315 315 315 312 309 304 302 302 301 301 299 298 297 297 296 295 295 294
327 326 326 328 330 329 328 326 324 327 329 331 329 329 328 327 325 322 316 314 315 317 317 316 317 316 315 315 314 312 307 304 302 302 301 301 299 298 297 296 296 296 295
328 325 325 325 328 327 327 329 327 330 329 330 329 328 329 327 325 323 319 315 314 316 317 316 316 317 316 315 315 314 310 306 303 302 302 301 300 299 298 298 297 296 296
329 326 327 326 326 327 327 326 326 327 328 327 328 328 328 328 327 325 322 318 314 315 315 316 316 317 317 316 315 314 313 309 305 303 302 301 301 300 299 298 298 297 296
330 328 328 328 326 327 326 326 327 326 328 327 326 326 328 328 328 327 326 322 316 315 315 314 315 317 317 316 315 315 314 310 307 305 304 302 301 301 300 300 299 298 297
329 331 331 330 329 329 328 328 327 327 326 327 326 325 328 327 328 327 326 325 319 317 316 315 315 317 317 316 316 315 314 312 308 307 304 303 302 302 301 300 300 299 299
327 329 331 331 330 329 329 328 327 327 327 327 327 326 327 327 328 327 326 326 320 320 321 320 318 317 316 315 315 315 315 313 311 307 305 303 303 302 301 300 300 299 299
328 327 328 331 330 330 330 329 325 327 325 328 327 327 327 327 327 327 327 326 321 320 321 320 320 319 317 316 316 315 314 313 311 309 307 305 303 302 303 303 301 300 299
328 328 329 331 330 330 330 328 326 325 326 327 328 328 328 327 328 327 326 327 325 321 321 321 321 320 317 316 316 316 314 312 311 309 308 306 305 303 303 302 301 300 299
325 325 331 330 331 330 330 329 325 325 325 326 327 329 328 328 328 327 326 327 327 326 322 322 321 321 320 315 314 314 315 313 311 309 307 306 305 304 303 300 299 299 298
Wind_Speed
10 13 10 13 15 11 12 13 13 14 17 20 13 9 10 9 11 11 15 13 13 14 13 14 14 14 15 15 14 14 15 15 15 16 16 16 16 16 18 17 18 19 19
12 14 13 16 16 12 13 12 15 15 14 18 18 13 9 7 4 10 12 11 9 8 13 12 12 12 13 13 14 15 13 13 15 14 13 14 15 15 15 16 17 18 18
10 15 15 17 16 14 12 15 15 15 13 14 15 17 16 10 7 5 7 5 5 6 9 9 9 10 11 11 11 9 11 11 11 11 11 12 12 14 14 15 16 16 17
15 16 16 19 16 15 17 15 16 14 14 11 11 11 13 13 12 5 5 6 4 2 7 7 6 7 8 10 8 8 9 8 9 10 10 10 11 12 13 14 13 13 14
14 19 17 19 19 16 15 17 15 15 13 11 13 10 10 10 14 14 17 12 0 5 4 3 2 4 4 7 6 7 6 7 7 7 7 7 9 9 10 11 11 11 11
16 16 18 20 21 19 17 17 18 17 16 13 11 10 7 8 11 9 8 13 16 8 3 1 2 3 1 3 3 4 5 6 5 4 5 5 6 6 7 8 9 9 10
20 20 19 23 24 23 18 19 18 18 18 17 18 13 11 10 6 4 5 7 9 14 9 1 5 8 2 4 2 3 5 4 3 2 2 2 3 3 5 5 6 7 8
22 22 23 26 26 23 22 23 22 21 20 22 18 14 8 8 11 11 7 10 7 9 11 11 11 10 8 6 2 6 5 3 3 2 1 1 1 0 2 2 3 5 6
28 25 25 26 28 27 27 26 23 22 22 22 17 8 7 7 11 11 15 13 12 9 9 12 13 16 10 12 10 9 8 6 6 4 3 3 3 3 2 1 1 2 4
27 29 29 30 29 35 32 30 25 22 20 20 23 16 6 6 7 9 15 15 18 14 16 13 13 14 17 17 13 8 6 6 8 7 6 5 5 5 4 4 2 2 3
26 31 32 32 31 31 34 33 30 26 24 20 21 21 17 14 14 8 11 16 19 17 18 15 16 14 15 14 13 11 10 9 9 10 9 8 7 8 7 6 5 5 5
28 32 34 35 33 29 34 34 34 30 29 25 19 18 22 21 20 17 12 17 16 16 18 19 19 18 16 14 15 10 10 10 11 11 11 10 10 10 9 9 9 8 8
31 34 35 39 38 36 34 35 34 32 32 31 26 22 19 20 16 14 13 16 19 14 19 20 21 18 18 16 17 13 13 13 12 13 13 12 11 12 12 12 12 11 11
35 35 37 40 38 39 38 36 35 34 35 35 33 29 25 21 19 18 18 16 14 16 23 20 21 21 19 20 19 16 15 15 13 14 14 14 14 13 14 14 14 14 13
36 40 38 39 41 39 40 40 37 35 37 38 36 35 32 26 24 24 19 22 20 18 24 22 20 19 19 21 21 19 17 17 16 16 16 16 16 15 15 16 16 16 15
37 30 34 38 40 43 42 42 43 38 37 39 40 37 37 35 30 27 27 27 21 23 22 22 25 24 17 19 21 19 19 19 18 18 18 18 18 17 17 17 17 18 17
51 44 34 35 37 39 40 43 47 44 45 43 41 40 39 38 38 32 32 32 30 25 28 24 17 25 22 19 23 22 20 22 21 20 20 20 20 19 19 19 18 19 19
47 41 41 34 34 36 39 38 44 49 47 45 45 41 41 42 42 37 35 36 33 32 27 25 20 23 25 22 23 25 26 25 24 23 21 21 21 21 21 21 20 20 20
49 42 35 45 43 38 35 35 38 46 49 48 44 42 42 43 44 39 41 39 37 34 32 29 27 27 30 27 26 27 28 28 28 27 25 24 24 23 23 23 24 23 22
48 43 35 38 42 40 37 33 33 44 44 48 47 45 44 46 46 43 41 43 40 39 36 34 32 32 29 31 29 29 30 32 29 28 30 28 25 24 25 27 27 27 25
45 52 44 39 42 40 41 39 40 38 46 46 49 47 47 47 49 48 45 43 45 41 38 37 36 31 33 34 36 33 31 31 31 28 29 30 29 28 26 26 27 28 28
47 44 47 49 48 47 47 44 40 39 40 48 50 47 47 47 48 50 48 45 44 45 45 42 39 40 39 38 37 36 34 30 32 31 30 31 32 30 27 27 24 25 24
42 46 47 48 51 49 45 42 39 39 39 46 48 48 47 49 49 48 50 48 45 44 41 39 42 42 40 38 37 36 37 36 34 31 29 31 29 33 32 29 26 23 22
41 46 48 46 46 46 45 40 36 39 38 46 44 49 49 52 54 50 50 52 51 48 46 44 42 41 40 37 35 36 37 36 35 33 30 36 33 36 31 30 30 30 28
37 42 40 45 45 44 46 40 35 35 38 44 49 52 57 55 56 54 51 53 54 55 51 48 46 43 43 40 37 34 35 34 38 40 35 36 37 38 37 38 35 33 33
37 39 37 47 42 43 47 47 41 38 39 45 51 58 63 60 58 58 55 52 55 57 53 51 52 51 49 49 46 45 42 42 43 42 41 36 38 39 42 41 36 31 30
Wind_Direction
204 165 145 123 111 106 108 146 156 149 140 129 116 101 88 104 127 119 116 113 107 103 99 99 100 94 95 100 89 95 88 86 86 82 80 78 76 76 72 65 63 64 64
207 171 163 144 141 137 179 153 150 129 139 144 137 120 114 106 83 130 124 115 113 119 111 106 99 97 96 97 98 97 91 92 91 84 83 80 79 75 72 70 68 63 61
213 180 171 155 139 175 153 167 133 164 135 135 147 146 136 126 130 42 103 110 137 121 114 98 96 97 94 102 106 109 97 90 92 88 81 80 79 77 72 75 70 64 62
209 201 176 160 164 185 177 167 169 147 159 163 151 139 147 155 141 115 46 7 4 13 123 84 93 79 84 101 95 91 100 99 98 90 90 85 78 78 74 71 70 67 60
214 189 180 169 181 177 187 159 163 167 164 158 148 172 161 168 155 173 170 166 143 288 324 111 87 85 86 117 103 109 108 109 101 99 93 82 86 76 74 74 69 63 59
206 195 185 182 187 178 187 168 175 180 172 156 164 158 147 135 188 212 183 185 164 228 267 115 48 23 338 132 134 125 137 136 130 102 103 84 89 82 80 74 63 57 51
206 200 198 197 194 189 189 185 183 181 174 167 174 163 166 184 200 203 181 235 195 180 210 245 316 322 308 293 243 169 161 184 166 129 112 92 96 95 79 76 66 54 46
199 208 210 204 198 198 191 200 190 183 188 187 188 165 176 200 180 210 205 232 229 228 209 186 172 269 295 275 255 283 269 258 221 279 223 213 165 170 86 75 60 49 42
199 207 217 215 205 206 202 208 199 193 193 199 196 170 170 220 204 206 208 232 242 222 246 218 210 201 217 265 276 275 262 271 273 281 262 244 233 244 242 247 15 14 21
212 205 216 223 214 212 210 213 210 201 205 199 194 179 205 239 172 189 229 222 243 231 234 244 228 222 216 241 260 249 253 274 274 275 268 256 249 250 255 258 269 298 326
226 208 212 223 228 222 216 219 217 209 208 217 208 198 209 211 196 215 214 227 241 245 237 242 245 237 237 240 252 269 268 269 272 271 266 258 255 253 254 261 265 273 287
220 214 212 223 227 230 225 225 228 223 217 217 224 220 219 220 216 218 237 238 251 251 242 251 242 245 244 238 250 261 254 264 267 268 267 262 260 260 259 259 264 267 275
222 221 219 219 224 226 226 232 231 225 223 223 222 228 232 230 220 231 225 237 229 241 235 251 257 249 247 251 249 261 258 261 264 266 267 268 263 264 266 262 261 264 267
237 234 226 223 225 225 227 236 236 233 229 231 229 227 232 230 226 209 236 233 211 225 236 253 257 255 247 249 258 257 257 260 265 267 268 271 270 265 268 267 264 263 266
230 237 237 236 229 229 228 236 238 236 234 235 234 234 232 229 232 215 225 223 241 227 232 257 255 259 257 251 257 262 257 259 264 265 266 268 270 268 266 269 268 265 264
222 236 241 238 240 235 231 234 242 243 239 238 236 236 234 231 231 226 225 224 231 232 242 255 255 258 256 256 260 264 262 263 261 264 265 268 269 269 268 268 270 269 266
234 230 239 241 240 242 239 235 240 244 242 240 240 238 237 236 236 232 226 231 226 232 241 243 271 247 246 256 267 270 261 261 265 265 264 265 267 267 267 266 268 271 270
240 242 234 239 245 246 247 247 244 242 243 242 243 240 237 238 239 236 228 233 233 229 235 238 248 249 245 261 266 269 268 265 265 266 265 265 264 264 267 270 269 270 270
239 243 241 235 243 245 247 247 252 243 245 248 251 244 238 238 240 235 228 232 234 232 229 234 233 253 260 256 259 265 265 263 266 268 270 267 265 264 265 267 269 268 269
240 241 239 233 243 247 250 255 259 245 245 248 251 250 244 238 242 239 234 232 234 233 234 236 239 238 252 257 260 261 266 264 258 258 268 272 271 268 266 265 267 268 268
240 241 236 240 241 246 251 253 254 249 244 246 249 252 248 243 244 245 243 238 232 230 235 239 235 235 239 248 250 260 269 269 266 261 263 267 270 271 271 271 269 270 271
244 241 244 243 243 247 251 256 258 251 252 247 246 251 252 245 243 246 247 247 243 236 235 237 237 235 234 240 253 258 266 261 258 264 263 268 275 276 275 272 270 274 271
246 243 242 239 243 246 250 253 260 261 258 249 244 252 254 251 245 243 244 245 243 242 244 246 242 241 242 242 242 253 258 262 267 266 261 265 263 271 280 282 281 277 272
245 243 244 242 241 242 245 248 254 257 257 250 253 255 251 249 246 244 241 239 238 238 241 243 244 249 246 247 241 249 261 271 273 269 261 262 268 271 273 273 278 284 286
247 245 245 240 244 250 244 247 246 252 250 249 253 253 250 251 251 247 244 242 239 238 243 244 249 249 248 243 242 241 246 248 254 260 260 258 260 266 270 274 276 275 279
253 248 243 234 245 246 247 246 247 253 253 252 251 247 250 253 251 246 242 242 241 243 242 244 241 243 246 246 245 248 252 246 250 258 262 254 260 262 265 274 278 276 273